Regional Weather Roundup
Issued by NWS

Home | Current Version | Previous Version | Text Only | Print | Product List | Glossary On
Versions: 1 2 3 4 5 6 7 8 9 10 11 12 13 14 15 16 17 18 19 20 21 22 23 24 25 26 27 28 29 30 31 32 33 34 35 36 37 38 39 40 41 42 43 44 45 46 47 48 49 50
000
ASUS43 KDMX 270508
RWRIA

WEATHER ROUNDUP FOR IOWA
NATIONAL WEATHER SERVICE DES MOINES IA
1200 AM CDT TUE SEP 27 2016

NOTE: "FAIR" INDICATES FEW OR NO CLOUDS BELOW 12,000 FEET WITH NO
SIGNIFICANT WEATHER AND/OR OBSTRUCTIONS TO VISIBILITY.

* - THESE STATIONS ARE NOT NWS STATIONS...THUS NOT UNDER NWS
QUALITY CONTROL.  THEY ALSO DO NOT REPORT WEATHER SUCH
AS PRECIPITATION OR FOG.

IAZ001>003-012>014-020>022-031>034-043>046-270600-
   NORTHWEST IOWA

CITY           SKY/WX    TMP DP  RH WIND       PRES   REMARKS
CARROLL *      CLEAR     52  45  76 W8        30.03S
CHEROKEE *     CLEAR     50  42  73 W3        30.03F
DENISON *      CLEAR     48  45  87 CALM      30.03S
LE MARS *      CLEAR     52  43  71 CALM      30.05F
ORANGE CITY *  CLEAR     50  43  76 NW5       30.04F
SHELDON *      CLEAR     46  39  76 W8        30.02S
SIOUX CITY     CLEAR     53  44  71 NW3       30.05F
SPENCER        CLEAR     42  38  85 W6        30.02F
STORM LAKE *   CLEAR     48  43  81 W10       30.04S
$$

IAZ055>058-069>071-079>083-090>094-270600-
   SOUTHWEST IOWA

CITY           SKY/WX    TMP DP  RH WIND       PRES   REMARKS
ATLANTIC *     CLEAR     50  46  87 CALM      30.05F
AUDUBON *      CLEAR     48  43  81 CALM      30.05S
CLARINDA *       N/A     50  48  93 MISG      30.08F
COUNCIL BLFS * CLEAR     59  45  58 SW6       30.06F
CRESTON *      CLEAR     55  45  67 W6        30.07S
HARLAN  *      CLEAR     50  46  87 CALM      30.08F
LAMONI         CLEAR     53  47  79 W7        30.06R
RED OAK *      PTCLDY    52  48  87 CALM      30.07F
SHENANDOAH *   CLEAR     52  48  87 CALM      30.08F
$$

IAZ047>049-059>061-072>074-084-270600-
   CENTRAL IOWA

CITY           SKY/WX    TMP DP  RH WIND       PRES   REMARKS
AMES           CLEAR     59  44  57 W10       30.00S
ANKENY *         N/A    N/A N/A N/A MISG        N/A
BOONE *        CLEAR     59  41  51 W12G17    30.00F
CHARITON *       N/A     54  46  76 W6        30.04R
DES MOINES     CLEAR     57  45  64 W6        30.02S
GRINNELL*      CLEAR     56  43  60 W9        30.00S
KNOXVILLE *    CLEAR     55  45  67 SW7       30.01S
MARSHALLTOWN   CLEAR     55  43  63 W9        29.98S
NEWTON *       CLEAR     52  43  71 W7        30.00S
PELLA *        CLEAR     58  47  67 W5        30.02F
PERRY *          N/A     49  45  86 W7        30.02F
$$

IAZ004>006-015-016-023>025-035-036-270600-
   NORTH CENTRAL IOWA

CITY           SKY/WX    TMP DP  RH WIND       PRES   REMARKS
ALGONA *       CLEAR     48  39  71 W9        29.99F
CLARION *      CLEAR     50  43  76 W7        29.99S
ESTHERVILLE    CLEAR     47  37  68 W8        29.99F
FORT DODGE *   CLEAR     52  39  62 W5        30.00F
MASON CITY     CLEAR     48  37  65 W10       29.97F
FOREST CITY *    N/A     46  36  66 W7        29.97S
WEBSTER CITY * CLEAR     50  43  76 W8        29.98S
IOWA FALLS *     N/A     52  42  68 W7        30.00R
$$

IAZ007>011-017>019-026>030-037>042-050>054-066-270600-
   NORTHEAST IOWA

CITY           SKY/WX    TMP DP  RH WIND       PRES   REMARKS
CEDAR RAPIDS   CLEAR     51  42  71 W8        29.96S
CHARLES CITY * CLEAR     54  36  50 W8G15     29.95S
CLINTON *      CLEAR     49  43  80 W8        29.95F
DECORAH *      CLEAR     54  37  54 VRB5      29.90S
DUBUQUE        CLEAR     47  41  80 W8        29.93F
MONTICELLO *   CLEAR     48  43  81 SW5       29.94S
OELWEIN *      CLEAR     48  41  76 W7        29.95S
WATERLOO       CLEAR     53  40  61 W7        29.95S
$$

IAZ064-065-067-068-078-270600-
   EAST CENTRAL IOWA

CITY           SKY/WX    TMP DP  RH WIND       PRES   REMARKS
DAVENPORT      CLEAR     54  41  61 W8        29.96F
IOWA CITY      CLEAR     53  42  66 NW5       29.98F
MT. PLEASANT * CLEAR     56  46  69 SW7       30.00F
MUSCATINE *    CLEAR     57  43  58 SW10      29.97F
QUAD CITIES    CLEAR     55  42  61 SW7       29.96F
$$

IAZ062-063-075>077-085>089-095>099-270600-
   SOUTHEAST IOWA

CITY           SKY/WX    TMP DP  RH WIND       PRES   REMARKS
BURLINGTON     CLEAR     58  44  60 W7        30.00F
FAIRFIELD *    CLEAR     55  45  67 SW7       30.01S
FORT MADISON * CLEAR     57  45  62 SW7       30.02F
KEOKUK *       CLEAR     54  45  71 SW7       30.02S
OSKALOOSA *      N/A     50  44  79 SW7       30.02S
OTTUMWA        CLEAR     53  44  71 W8        30.02S
WASHINGTON *     N/A    N/A N/A N/A MISG        N/A
$$

ABBREVIATIONS USED IN REMARKS
   TC - TEMPERATURES IN CELSIUS
  WCI - WIND CHILL INDEX
   HX - HEAT INDEX
  VSB - VISIBILITY
$$




USA.gov is the U.S. government's official web portal to all federal, state and local government web resources and services.